SCP
0 0 0 0 0 0 0 0 0 0 0 0 0 0 0 0 0 0 0 0 0 0 0 0 0 0 1 3 4 5 4 3 3 3 3 4 3 3
0 0 0 0 0 0 0 0 0 0 0 0 0 0 0 0 0 0 0 0 0 0 0 0 0 0 1 2 3 3 2 2 1 2 2 2 2 3
0 0 0 0 0 0 0 0 0 0 0 0 0 0 0 0 0 0 0 0 0 0 0 0 0 0 0 1 1 1 1 0 0 0 1 1 1 1
0 0 0 0 0 0 0 0 0 0 0 0 0 0 0 0 0 0 0 0 0 0 0 0 0 0 0 0 0 0 0 0 0 0 0 0 1 1
0 0 0 0 0 0 0 0 0 0 0 0 0 0 0 0 0 0 0 0 0 0 0 0 0 0 0 0 0 0 0 0 0 0 0 0 0 0
0 0 0 0 0 0 0 0 0 0 0 0 0 0 0 0 0 0 0 0 0 0 0 0 0 0 0 0 0 0 0 0 0 0 0 0 0 0
0 0 0 0 0 0 0 0 0 0 0 0 0 0 0 0 0 0 0 0 0 0 0 0 0 0 0 0 0 0 0 0 0 0 0 0 0 0
0 0 0 0 0 0 0 0 0 0 0 0 0 0 0 0 0 0 0 0 0 0 0 0 0 0 0 0 0 0 0 0 0 0 0 0 0 0
0 0 0 0 0 0 0 0 0 0 0 0 0 0 0 0 0 0 0 0 0 0 0 0 0 0 0 0 0 0 0 0 0 0 0 0 0 0
0 0 0 0 0 0 0 0 0 0 0 0 0 0 0 0 0 0 0 0 0 0 0 0 0 0 0 0 0 0 0 0 0 0 0 0 0 0
0 0 0 0 0 0 0 0 0 0 0 0 0 0 0 0 0 0 0 0 0 0 0 0 0 0 0 0 0 0 0 0 0 0 0 0 0 0
0 0 0 0 0 0 0 0 0 0 0 0 0 0 0 0 0 0 0 0 0 0 0 0 0 0 0 0 0 0 0 0 0 0 0 0 0 0
0 0 0 0 0 0 0 0 0 0 0 0 0 0 0 0 0 0 0 0 0 0 0 0 0 0 0 0 0 0 0 0 0 0 0 0 0 0
0 0 0 0 0 0 0 0 0 0 0 0 0 0 0 0 0 0 0 0 0 0 0 0 0 0 0 0 0 0 0 0 0 0 0 0 0 0
0 0 0 0 0 0 0 0 0 0 0 0 0 0 0 0 0 0 0 0 0 0 0 0 0 0 0 0 0 0 0 0 0 0 0 0 0 0
0 0 0 0 0 0 0 0 0 0 0 0 0 0 0 0 0 0 0 0 0 0 0 0 0 0 0 0 0 0 0 0 0 0 0 0 0 0
0 0 0 0 0 0 0 0 0 0 0 0 0 0 0 0 0 0 0 0 0 0 0 0 0 0 0 0 0 0 0 0 0 0 0 0 0 0
0 0 0 0 0 0 0 0 0 0 0 0 0 0 0 0 0 0 0 0 0 0 0 0 0 0 0 0 0 0 0 0 0 0 0 0 0 0
0 0 0 0 0 0 0 0 0 0 0 0 0 0 0 0 0 0 0 0 0 0 0 0 0 0 0 0 0 0 0 0 0 0 0 0 0 0
0 0 0 0 0 0 0 0 0 0 0 0 0 0 0 0 0 0 0 0 0 0 0 0 0 0 0 0 0 0 0 0 0 0 0 0 0 0
0 0 0 0 0 0 0 0 0 0 0 0 0 0 0 0 0 0 0 0 0 0 0 0 0 0 0 0 0 0 0 0 0 0 0 0 0 0
0 0 0 0 0 0 0 0 0 0 0 0 0 0 0 0 0 0 0 0 0 0 0 0 0 0 0 0 0 0 0 0 0 0 0 0 0 0
0 0 0 0 0 0 0 0 0 0 0 0 0 0 0 0 0 0 0 0 0 0 0 0 0 0 0 0 0 0 0 0 0 0 0 0 0 0
Wind_Speed
1 1 1 1 1 2 2 2 2 2 2 1 1 1 2 2 3 3 3 5 5 5 5 5 5 5 5 5 4 5 4 2 2 3 3 3 3 5
1 2 1 1 1 1 1 2 2 2 2 1 1 2 2 2 2 2 3 4 4 4 5 5 5 5 4 4 3 4 4 4 4 3 4 3 2 2
2 2 2 2 1 1 1 1 1 1 2 2 1 1 1 2 2 2 2 2 2 4 4 5 4 5 5 5 4 4 4 4 4 3 3 3 3 3
3 3 3 2 1 1 1 1 1 2 2 2 1 1 1 2 2 2 2 1 1 2 3 3 4 4 4 4 4 4 3 3 3 3 3 3 3 3
3 3 3 2 2 2 1 1 1 1 1 2 1 1 1 1 1 1 1 1 1 1 1 2 2 3 2 2 2 2 2 2 2 2 2 3 3 3
3 3 3 2 2 2 1 1 1 1 1 1 1 1 1 1 0 1 1 1 1 1 1 1 1 1 1 0 1 1 1 1 1 2 2 2 2 2
4 4 3 3 2 2 1 1 1 1 1 1 1 1 1 1 1 1 1 1 1 1 1 1 1 1 1 1 1 1 2 1 1 1 2 2 3 3
4 4 4 3 3 3 2 2 2 3 2 2 2 2 3 2 1 1 1 1 1 0 1 2 1 2 2 2 2 3 3 3 3 3 3 4 4 4
3 4 4 4 4 2 2 2 1 3 4 4 4 4 3 3 3 2 2 1 2 1 0 2 1 2 2 2 3 4 4 4 4 5 5 5 5 5
3 3 3 4 3 3 2 2 2 1 2 3 4 4 4 4 4 3 2 1 2 1 2 1 1 2 2 2 3 4 5 5 6 6 6 6 7 7
4 3 3 3 4 3 1 2 2 2 2 2 3 4 4 5 4 2 2 1 1 1 2 2 1 1 2 2 2 3 5 6 6 7 7 7 8 7
3 3 4 4 4 3 1 1 2 3 3 3 2 1 1 2 4 4 3 2 1 2 2 2 1 1 2 1 2 2 3 5 6 7 8 8 8 5
3 3 3 5 5 4 2 2 3 3 2 2 1 1 1 1 1 2 3 3 3 2 2 3 2 1 1 2 2 3 3 3 3 4 6 7 8 7
3 3 4 6 6 5 3 2 3 2 1 1 1 1 1 2 2 2 3 4 4 5 3 4 2 2 2 2 3 2 3 3 3 3 4 4 6 8
3 6 7 7 6 4 3 3 2 1 1 1 2 2 2 2 2 1 1 2 3 4 4 5 4 3 3 3 3 3 3 3 3 3 3 4 4 3
4 5 6 5 4 3 3 2 1 2 2 2 3 2 2 1 1 1 1 1 1 2 2 4 5 5 3 4 4 4 4 3 3 3 3 4 4 4
3 2 2 3 3 3 3 3 2 1 2 2 2 2 2 2 2 1 1 1 1 2 3 1 2 4 5 4 4 5 4 4 4 4 3 4 4 4
2 2 3 3 3 3 4 3 3 2 2 2 2 2 3 3 3 2 2 2 3 3 3 2 1 1 2 4 7 6 4 4 4 3 3 4 5 5
2 3 4 4 4 4 4 3 3 3 2 2 3 3 3 3 3 3 2 3 3 4 3 3 2 2 3 5 4 6 5 4 4 3 4 4 5 5
3 4 4 4 4 4 4 4 4 3 3 3 3 4 4 3 3 3 3 4 4 4 4 3 3 4 4 5 4 4 7 6 4 5 5 4 5 7
4 4 5 5 5 4 4 4 4 4 4 4 4 4 4 4 4 4 4 5 5 4 5 5 5 5 3 2 4 5 4 7 7 5 5 5 5 4
5 5 5 5 5 5 4 4 4 4 5 4 4 4 4 4 5 6 5 5 4 5 6 5 4 2 3 4 6 6 6 5 6 9 10 8 5 5
5 5 5 5 5 5 5 5 5 5 5 4 4 4 4 4 5 5 5 5 5 5 5 5 4 3 4 5 6 6 8 7 5 5 5 7 11 13
Wind_Direction
312 296 265 255 247 239 213 207 208 252 278 270 281 333 347 354 354 359 2 13 24 28 27 29 28 31 41 50 54 65 68 74 120 150 169 187 198 203
297 293 287 266 266 250 223 219 214 221 253 272 269 295 319 333 360 3 2 10 24 36 31 32 38 40 47 57 66 82 88 93 100 114 126 135 151 163
327 311 304 290 283 284 252 218 213 212 240 274 273 290 304 322 346 351 353 352 14 36 34 35 36 42 50 56 64 80 89 97 97 103 111 120 132 134
332 330 319 320 326 315 288 259 242 225 208 240 280 299 307 307 325 329 337 345 358 25 25 27 31 40 48 57 64 66 74 90 100 105 112 123 141 147
326 325 316 327 323 313 298 273 256 229 199 199 258 292 302 308 332 333 338 330 335 5 22 25 32 44 48 54 69 75 83 97 114 122 131 142 156 165
331 322 313 302 279 292 294 271 227 184 174 182 216 263 289 308 312 321 332 335 331 339 356 350 358 7 358 1 110 125 143 143 147 156 165 171 179 190
339 335 320 315 295 278 271 255 212 195 203 204 220 256 273 262 255 284 295 314 311 305 325 328 319 306 291 266 232 195 187 193 196 199 208 212 211 206
335 333 334 339 338 330 312 277 220 203 210 216 226 219 232 231 227 216 227 314 300 275 307 308 302 284 275 253 229 218 214 215 217 220 223 222 220 216
328 331 338 345 348 341 331 327 285 229 213 207 217 223 220 213 202 217 221 239 260 263 263 289 297 285 279 253 232 232 232 232 232 232 231 230 231 231
327 321 323 328 334 331 331 340 330 301 238 222 225 234 233 222 211 212 210 237 272 252 210 255 280 286 298 289 262 242 240 240 240 240 238 239 240 242
326 329 327 326 330 342 356 343 337 330 315 258 236 237 237 226 201 180 185 186 281 278 199 227 266 291 294 291 282 260 250 247 248 249 249 250 251 252
327 326 326 331 335 338 319 306 314 311 327 335 336 307 250 222 194 195 197 197 225 259 205 203 241 260 287 273 276 270 261 256 256 255 252 252 251 251
320 321 319 330 330 321 289 252 258 273 297 310 321 331 323 272 219 204 204 204 211 242 211 188 219 223 244 279 283 271 266 269 272 266 258 256 253 238
291 298 302 315 318 314 301 273 267 263 263 294 310 310 296 281 276 258 228 223 229 241 234 201 218 216 227 263 278 284 281 273 268 271 275 273 260 243
280 291 302 311 314 312 305 298 279 252 246 261 270 270 266 264 270 275 258 227 234 240 235 217 215 217 222 244 264 271 285 283 262 267 274 273 270 256
300 305 310 313 313 300 303 303 272 233 225 242 257 261 264 265 262 258 256 290 295 288 253 219 217 214 230 242 251 266 265 271 279 275 277 278 271 256
302 303 316 324 327 327 320 307 290 251 233 236 244 260 267 267 263 240 226 229 244 276 293 283 234 227 234 241 255 261 264 266 267 272 271 278 276 267
285 290 298 300 299 302 304 303 294 280 265 254 249 250 258 263 267 254 228 234 251 265 272 277 280 272 249 239 225 252 263 266 272 266 255 269 283 280
240 269 277 282 283 285 282 278 279 279 274 267 261 256 254 254 252 254 252 253 262 266 266 254 243 245 274 290 263 215 235 265 271 271 258 251 269 283
243 262 272 277 278 279 279 274 274 279 271 267 261 256 249 245 247 252 252 253 263 269 272 258 238 231 244 272 284 271 227 239 257 268 275 270 267 276
266 264 265 269 270 271 272 270 270 272 271 269 266 260 251 241 245 250 250 248 250 259 265 268 262 241 239 246 265 272 262 229 230 250 272 280 283 284
268 266 267 265 264 266 267 268 271 271 271 264 261 260 255 242 243 248 249 248 249 252 261 269 269 235 220 241 264 277 283 285 255 242 243 244 265 278
264 264 263 262 260 258 258 261 264 268 267 265 263 261 259 250 246 246 247 248 252 256 259 266 263 244 244 250 262 272 278 284 291 291 280 257 244 256